Date,TemperatureHighF,TemperatureAvgF,TemperatureLowF,DewpointHighF,DewpointAvgF,DewpointLowF,HumidityHigh,HumidityAvg,HumidityLow,PressureMaxIn,PressureMinIn,WindSpeedMaxMPH,WindSpeedAvgMPH,GustSpeedMaxMPH,PrecipitationSumIn
2014-1-1,21.1,17.4,13.3,21.1,16.9,11.4,100,98,91,30.31,30.17,2,1,8,0.00
2014-1-2,17.3,13.2,-1.4,16.8,6.6,-5.1,98,76,49,30.35,30.09,6,2,19,0.00
2014-1-3,18.0,7.9,-6.3,9.1,0.3,-10.9,91,72,49,30.43,29.97,6,2,20,0.00
2014-1-4,38.5,27.7,18.0,38.5,21.2,8.0,100,77,60,29.97,29.83,4,1,18,0.01
2014-1-5,42.3,32.7,23.9,42.1,32.7,23.2,100,100,100,29.96,29.76,14,3,24,0.00
2014-1-6,25.1,6.4,0.1,25.1,3.4,-5.1,100,87,75,30.14,29.81,11,6,30,0.00
2014-1-7,7.6,3.3,-2.4,5.0,-0.4,-7.3,89,84,77,30.32,30.13,6,2,17,0.00
2014-1-8,22.1,11.8,-1.0,21.9,9.6,-4.7,100,91,75,30.49,30.29,2,0,5,0.00
2014-1-9,30.1,13.9,0.9,29.5,12.3,-2.3,100,93,75,30.52,30.18,3,1,7,0.00
2014-1-10,56.5,21.6,29.8,55.9,-26.7,-99.9,100,52,100,30.18,29.48,7,-466,13,0.88
2014-1-11,48.9,17.7,40.6,48.9,-41.5,-99.9,100,41,95,29.66,29.31,7,-585,19,0.10
2014-1-12,47.3,40.1,35.9,40.6,36.5,32.1,100,88,60,29.85,29.60,6,3,19,0.00
2014-1-13,46.0,42.3,35.3,41.8,37.6,34.7,100,84,65,29.67,29.47,6,2,16,0.00
2014-1-14,38.5,32.6,26.9,37.0,29.7,21.3,100,90,61,29.72,29.56,7,3,24,0.00
2014-1-15,27.0,23.4,15.9,26.7,21.0,12.7,100,90,68,29.99,29.72,9,4,21,0.00
2014-1-16,43.3,28.1,15.7,41.6,27.6,13.5,100,98,84,29.88,29.49,5,2,14,0.00
2014-1-17,32.7,22.5,16.4,32.7,20.7,14.4,100,93,80,29.91,29.59,5,2,14,0.00
2014-1-18,21.3,19.2,16.4,21.3,17.1,10.7,100,92,69,29.88,29.78,5,1,11,0.00
2014-1-19,38.9,27.9,17.2,35.9,26.2,17.2,100,93,80,29.82,29.45,8,2,22,0.00
2014-1-20,38.8,28.1,14.9,37.3,25.6,9.1,100,90,75,30.02,29.46,9,3,20,0.05
2014-1-21,15.1,11.4,6.0,10.3,-1.0,-7.4,82,58,37,30.23,30.03,5,2,13,0.00
2014-1-22,15.1,10.5,6.5,15.1,4.4,-5.4,100,77,53,30.16,29.87,7,2,25,0.00
2014-1-23,16.5,13.9,10.0,16.4,7.8,-0.5,100,78,51,30.47,30.00,8,3,19,0.00
2014-1-24,26.0,10.7,-5.4,25.8,3.7,-11.3,100,74,49,30.46,29.46,4,2,18,0.00
2014-1-25,37.5,22.5,14.1,37.0,15.4,-0.3,100,75,51,29.78,29.29,14,7,28,0.00
2014-1-26,30.3,18.4,7.2,27.8,14.0,1.9,100,84,57,29.77,29.33,13,3,26,0.00
2014-1-27,19.4,7.4,2.4,16.7,2.9,-8.0,100,82,54,30.33,29.55,12,6,28,0.00
2014-1-28,9.9,3.6,-5.4,5.2,-1.9,-10.8,95,77,66,30.38,30.18,7,1,14,0.00
2014-1-29,19.4,13.8,9.9,6.9,2.5,-0.7,71,60,43,30.18,30.04,8,3,21,0.00
2014-1-30,34.0,24.5,17.2,33.5,14.9,3.6,100,69,47,30.04,29.66,6,2,19,0.00
2014-1-31,34.0,26.2,22.7,33.7,22.9,17.5,100,87,71,30.10,29.79,8,2,17,0.00
2014-2-1,38.8,30.3,24.1,38.8,30.3,24.1,100,100,100,30.07,29.78,2,0,6,0.00
2014-2-2,29.4,23.1,9.0,29.0,20.1,9.0,100,88,72,30.27,29.98,7,2,13,0.00
2014-2-3,25.1,11.3,-1.8,15.6,6.4,-5.9,100,82,57,30.37,30.26,4,0,10,0.00
2014-2-4,25.7,15.9,3.7,23.5,11.5,0.4,100,84,59,30.41,30.08,3,0,10,0.00
2014-2-5,26.7,21.6,19.4,26.6,18.8,11.5,100,90,65,30.36,29.96,9,4,17,0.00
2014-2-6,19.9,13.3,6.0,18.4,9.7,0.7,100,85,75,30.36,30.31,5,1,17,0.00
2014-2-7,14.1,8.9,2.2,7.9,1.9,-4.8,93,73,55,30.35,30.29,6,2,14,0.00
2014-2-8,17.7,12.2,4.3,16.4,6.9,-2.4,100,80,54,30.33,30.12,3,0,8,0.00
2014-2-9,21.3,18.2,16.2,20.9,16.4,10.6,100,93,73,30.19,30.05,6,2,14,0.00
2014-2-10,17.7,14.2,11.7,13.1,9.0,4.3,96,79,68,30.39,30.19,7,2,14,0.00
2014-2-11,19.2,11.3,-1.4,9.8,4.6,-4.8,98,75,52,30.49,30.39,4,1,11,0.00
2014-2-12,23.8,9.4,-8.9,11.2,0.2,-14.2,92,68,44,30.41,30.01,4,1,10,0.00
2014-2-13,31.5,22.1,9.2,28.9,11.2,3.8,100,64,37,30.01,29.43,7,2,17,0.00
2014-2-14,28.5,23.2,20.6,27.6,20.9,16.6,100,91,79,29.84,29.45,9,5,22,0.00
2014-2-15,26.1,20.1,16.7,17.3,14.8,8.0,98,80,57,30.05,29.84,4,1,10,0.00
2014-2-16,28.2,20.6,9.3,26.1,18.7,8.4,100,93,69,30.27,29.90,7,2,17,0.00
2014-2-17,29.4,19.5,7.9,29.4,17.2,6.3,100,91,65,30.28,29.63,8,3,18,0.00
2014-2-18,46.0,35.5,27.0,30.9,26.8,22.2,100,73,49,29.95,29.59,9,4,19,0.44
2014-2-19,45.4,37.1,31.0,36.2,30.8,23.7,100,80,44,29.96,29.56,7,2,14,0.10
2014-2-20,55.7,34.8,33.1,55.7,18.3,-99.9,100,81,80,29.96,29.22,10,-152,18,0.37
2014-2-21,44.8,36.4,32.9,41.8,28.4,16.2,100,74,50,29.73,29.32,9,4,27,0.01
2014-2-22,35.0,30.0,26.0,26.5,16.1,10.0,71,56,38,29.98,29.73,8,3,22,0.00
2014-2-23,28.4,23.4,20.6,18.0,14.0,10.7,80,67,54,30.14,29.98,8,4,19,0.00
2014-2-24,24.1,20.6,18.0,12.9,11.4,8.2,78,67,52,30.20,30.11,9,5,19,0.00
2014-2-25,22.2,19.4,14.1,20.5,11.2,0.4,100,71,52,30.16,30.05,8,4,22,0.00
2014-2-26,18.1,12.4,9.2,9.0,2.1,-5.1,93,64,42,30.13,29.59,9,4,25,0.00
2014-2-27,19.2,10.3,1.5,16.5,2.5,-9.7,100,72,44,30.19,29.55,13,6,30,0.00
2014-2-28,23.6,10.7,-5.0,11.8,-1.6,-10.4,86,59,36,30.26,30.00,7,2,18,0.00
2014-3-1,27.2,21.2,14.4,27.0,16.6,10.7,100,83,62,30.28,29.98,8,3,17,0.00
2014-3-2,20.0,13.7,3.5,13.2,7.5,-1.8,92,76,59,30.39,30.25,10,2,19,0.00
2014-3-3,14.3,5.7,-6.8,-0.3,-5.0,-11.9,86,62,33,30.49,30.38,5,1,11,0.00
2014-3-4,22.9,15.3,2.6,11.4,4.2,-3.0,86,62,38,30.38,30.17,3,0,10,0.00
2014-3-5,28.4,21.2,16.2,20.1,12.9,6.4,100,72,49,30.45,30.23,4,1,12,0.05
2014-3-6,32.9,21.5,10.0,18.5,9.7,4.6,81,61,42,30.44,30.10,6,1,14,0.01
2014-3-7,46.2,32.1,14.9,35.9,19.4,12.1,100,64,25,30.09,29.84,4,1,10,0.10
2014-3-8,36.9,29.4,21.3,36.6,27.4,20.1,100,92,71,30.21,29.89,9,4,17,0.01
2014-3-9,40.5,29.5,17.0,34.7,23.5,17.0,100,81,50,30.20,29.78,3,1,12,0.00
2014-3-10,53.6,45.3,39.6,39.9,34.7,31.8,89,67,50,29.76,29.55,4,2,18,0.00
2014-3-11,47.3,41.3,36.6,42.2,37.3,32.4,100,87,60,29.70,29.58,4,1,12,0.01
2014-3-12,43.5,27.7,16.4,43.5,25.4,9.8,100,91,71,30.05,29.57,7,2,17,0.06
2014-3-13,30.7,22.6,2.2,29.3,15.9,-1.5,96,76,61,30.14,29.84,2,0,8,0.00
2014-3-14,50.7,41.9,30.7,35.9,32.8,29.7,97,72,47,29.84,29.50,10,3,22,0.53
2014-3-15,38.2,33.1,29.1,34.4,25.7,15.2,91,74,56,30.24,29.74,8,4,20,0.00
2014-3-16,29.4,21.2,11.9,15.6,4.1,-3.2,61,48,34,30.35,30.17,5,2,20,0.00
2014-3-17,34.0,22.1,10.2,19.1,6.9,-4.7,74,53,31,30.16,29.81,6,2,14,0.00
2014-3-18,46.4,35.1,24.4,36.4,26.5,17.6,87,71,55,29.91,29.70,8,3,18,0.00
2014-3-19,51.3,29.7,37.2,51.3,-1.6,-99.9,100,67,81,29.86,29.51,9,-304,17,0.37
2014-3-20,41.2,35.9,29.1,36.3,28.0,21.2,97,74,50,30.01,29.86,7,4,18,0.00
2014-3-21,48.2,38.0,26.9,45.8,33.5,26.1,100,85,62,30.01,29.62,9,2,18,0.05
2014-3-22,46.1,34.5,27.2,45.7,31.4,18.7,100,89,73,30.24,29.65,9,5,19,0.05
2014-3-23,27.5,22.7,17.0,19.0,10.7,5.8,75,60,46,30.38,30.24,8,3,19,0.00
2014-3-24,29.5,23.4,16.1,17.4,10.2,1.1,85,59,31,30.35,30.04,7,2,16,0.00
2014-3-25,27.9,24.0,20.3,26.1,14.5,5.9,100,68,43,30.17,29.92,11,5,25,0.00
2014-3-26,36.2,26.4,15.2,19.5,12.2,5.2,97,56,35,30.30,30.01,5,2,14,0.00
2014-3-27,48.2,39.6,34.7,47.0,32.2,12.8,100,79,38,30.01,29.46,5,3,17,0.08
2014-3-28,53.6,39.9,29.8,53.3,37.9,28.7,100,93,79,30.13,29.40,11,4,26,0.10
2014-3-29,40.6,34.8,30.0,36.9,32.6,29.9,100,92,74,30.17,30.08,8,2,18,0.00
2014-3-30,55.0,38.6,26.3,33.8,27.9,23.1,100,71,33,30.22,30.02,6,1,12,0.00
2014-3-31,66.0,51.1,34.9,39.0,31.9,26.0,91,53,23,30.06,29.73,10,4,25,0.00
2014-4-1,59.5,43.8,35.9,44.5,31.7,23.2,75,63,35,30.02,29.62,9,4,24,0.01
2014-4-2,47.1,39.6,30.0,32.0,28.6,24.6,100,66,46,30.13,30.00,7,2,14,0.00
2014-4-3,47.4,42.8,35.8,47.4,37.2,28.2,100,83,51,30.04,29.69,11,4,18,0.65
2014-4-4,49.9,27.0,36.6,48.9,-9.0,-99.9,100,61,82,29.83,29.38,10,-347,22,0.07
2014-4-5,45.2,37.6,32.4,34.2,25.4,12.8,91,64,28,30.16,29.83,11,4,25,0.05
2014-4-6,54.7,42.7,29.8,31.6,23.9,18.1,73,50,25,30.14,29.92,4,1,12,0.00
2014-4-7,56.9,42.2,30.3,33.5,29.9,22.2,100,66,28,29.92,29.52,4,0,14,0.00
2014-4-8,47.7,40.5,36.3,39.0,35.9,31.4,100,84,66,29.85,29.52,9,3,18,0.00
2014-4-9,58.9,46.1,32.1,43.1,32.7,24.8,100,66,30,29.97,29.81,7,1,14,0.00
2014-4-10,65.2,54.3,41.3,42.4,36.4,-99.9,99,53,37,29.84,29.62,6,2,19,0.00
2014-4-11,64.8,49.5,33.5,45.0,27.3,13.4,100,56,14,29.97,29.83,6,1,14,0.00
2014-4-12,67.9,52.0,43.2,39.7,32.6,27.4,67,50,24,29.97,29.85,6,1,16,0.00